AFR754A FZAA-LFPG

Flight info

Callsign AFR754A
Flight time N/A
Altitude 37000
Route GUSAR4A GUSAR DCT AMSIK/N0498F360 UM998 PIMTA/N0493F380 UM998 OPDAP/N0494F370 UW605 ENERI UQ589 IKREV DCT PODGA/N0491F380 UM214 GARIN M214 ELGAN/N0485F400 M214 SEB M999 IMN UR985 RIMEL UA605 CIRTA DCT NESUL DCT BARSO DCT IRMAR DCT KINES DCT VANAS DCT MOBLO DCT UBIMA DCT UNKIR/N0483F380 DCT GIVRI DCT TINIL
Aircraft A359/H-SDE2E3GHIJ3J4J5LM1ORWXY/LB1D1

Departure

Time N/A
Airport Ndjili International Airport (FZAA)

Arrival

Time 2026-05-07 15:10
Airport Charles de Gaulle International Airport (LFPG)
Time Latitude Longitude Altitude Speed Heading
2026-05-07 12:19 29.08715 9.13815 39963 ft 446 kts 326°
2026-05-07 12:19 29.14369 9.10886 39981 ft 446 kts 326°
2026-05-07 12:20 29.20028 9.07950 39964 ft 446 kts 326°
2026-05-07 12:20 29.25673 9.05018 39963 ft 446 kts 326°
2026-05-07 12:21 29.31320 9.02081 39964 ft 446 kts 325°
2026-05-07 12:21 29.36964 8.99142 39964 ft 446 kts 325°
2026-05-07 12:22 29.42603 8.96203 39964 ft 445 kts 325°
2026-05-07 12:22 29.48249 8.93258 39966 ft 446 kts 324°
2026-05-07 12:23 29.53905 8.90300 39964 ft 447 kts 324°
2026-05-07 12:23 29.59573 8.87334 39981 ft 448 kts 324°
2026-05-07 12:24 29.65243 8.84363 39963 ft 448 kts 324°
2026-05-07 12:24 29.70870 8.81413 39965 ft 448 kts 324°
2026-05-07 12:25 29.76569 8.78420 39964 ft 448 kts 324°
2026-05-07 12:25 29.82207 8.75455 39965 ft 448 kts 324°
2026-05-07 12:26 29.87867 8.72476 39961 ft 448 kts 324°
2026-05-07 12:26 29.93532 8.69488 39980 ft 447 kts 324°
2026-05-07 12:27 29.98240 8.67003 39963 ft 448 kts 324°
2026-05-07 12:27 30.03899 8.64013 39979 ft 448 kts 324°
2026-05-07 12:28 30.09562 8.61018 39961 ft 448 kts 324°
2026-05-07 12:28 30.15223 8.58021 39966 ft 448 kts 324°
2026-05-07 12:29 30.20881 8.55019 39962 ft 447 kts 324°
2026-05-07 12:29 30.26540 8.52014 39964 ft 447 kts 324°
2026-05-07 12:30 30.32193 8.49007 39963 ft 447 kts 324°
2026-05-07 12:30 30.37843 8.45999 39978 ft 447 kts 324°
2026-05-07 12:31 30.43501 8.42984 39981 ft 447 kts 324°
2026-05-07 12:31 30.49118 8.39992 39966 ft 447 kts 324°
2026-05-07 12:32 30.54786 8.37022 39979 ft 447 kts 325°
2026-05-07 12:32 30.60478 8.34054 39897 ft 452 kts 326°
2026-05-07 12:33 30.69181 8.29488 39882 ft 463 kts 326°
2026-05-07 12:33 30.75082 8.26389 39883 ft 469 kts 326°
2026-05-07 12:34 30.81072 8.23240 39882 ft 475 kts 326°
2026-05-07 12:34 30.87122 8.20056 39883 ft 480 kts 326°
2026-05-07 12:35 30.93225 8.16840 39883 ft 483 kts 326°
2026-05-07 12:35 30.99363 8.13601 39884 ft 485 kts 326°
2026-05-07 12:36 31.05504 8.10356 39883 ft 486 kts 326°
2026-05-07 12:36 31.11628 8.07114 39884 ft 486 kts 326°
2026-05-07 12:37 31.17791 8.03846 39883 ft 486 kts 326°
2026-05-07 12:37 31.23941 8.00579 39882 ft 484 kts 327°
2026-05-07 12:38 31.30071 7.97321 39883 ft 483 kts 327°
2026-05-07 12:38 31.36187 7.94065 39885 ft 483 kts 327°
2026-05-07 12:39 31.42301 7.90803 39884 ft 483 kts 327°
2026-05-07 12:39 31.48406 7.87541 39884 ft 483 kts 327°
2026-05-07 12:40 31.54518 7.84272 39884 ft 483 kts 327°
2026-05-07 12:40 31.60625 7.81000 39884 ft 482 kts 327°
2026-05-07 12:41 31.66734 7.77723 39884 ft 482 kts 327°
2026-05-07 12:41 31.72831 7.74447 39884 ft 483 kts 327°
2026-05-07 12:42 31.79319 7.71997 39883 ft 497 kts 338°
2026-05-07 12:42 31.86073 7.70303 39886 ft 502 kts 339°
2026-05-07 12:43 31.92958 7.68705 39883 ft 505 kts 339°
2026-05-07 12:43 31.99869 7.67098 39884 ft 506 kts 339°
2026-05-07 12:44 32.06778 7.65468 39884 ft 507 kts 339°
2026-05-07 12:44 32.13702 7.63821 39882 ft 507 kts 339°
2026-05-07 12:45 32.20610 7.62173 39884 ft 507 kts 339°
2026-05-07 12:45 32.27533 7.60521 39881 ft 507 kts 339°
2026-05-07 12:46 32.34446 7.58868 39883 ft 507 kts 339°
2026-05-07 12:46 32.41364 7.57211 39883 ft 507 kts 339°
2026-05-07 12:47 32.48232 7.55563 39884 ft 507 kts 339°
2026-05-07 12:47 32.55140 7.53905 39800 ft 506 kts 339°
2026-05-07 12:48 32.62026 7.52250 39803 ft 504 kts 339°
2026-05-07 12:48 32.68890 7.50595 39802 ft 503 kts 339°
2026-05-07 12:49 32.75790 7.48928 39802 ft 503 kts 339°
2026-05-07 12:49 32.82600 7.47281 39802 ft 503 kts 339°
2026-05-07 12:50 32.89460 7.45620 39802 ft 503 kts 339°
2026-05-07 12:50 32.96313 7.43958 39801 ft 503 kts 339°
2026-05-07 12:51 33.03170 7.42292 39802 ft 503 kts 339°
2026-05-07 12:51 33.10027 7.40624 39801 ft 503 kts 339°
2026-05-07 12:52 33.16881 7.38954 39802 ft 503 kts 339°
2026-05-07 12:52 33.23762 7.37271 39803 ft 507 kts 339°
2026-05-07 12:53 33.30689 7.35575 39802 ft 510 kts 339°
2026-05-07 12:53 33.37648 7.33873 39801 ft 511 kts 339°
2026-05-07 12:54 33.44622 7.32164 39802 ft 511 kts 339°
2026-05-07 12:54 33.51549 7.30464 39801 ft 512 kts 339°
2026-05-07 12:55 33.58530 7.28747 39802 ft 512 kts 339°
2026-05-07 12:55 33.65503 7.27029 39802 ft 512 kts 339°
2026-05-07 12:56 33.72477 7.25308 39801 ft 512 kts 339°
2026-05-07 12:56 33.79453 7.23582 39802 ft 512 kts 339°
2026-05-07 12:57 33.86428 7.21855 39802 ft 512 kts 339°
2026-05-07 12:57 33.93398 7.20125 39801 ft 512 kts 339°
2026-05-07 12:58 34.00378 7.18391 39803 ft 512 kts 339°
2026-05-07 12:58 34.07299 7.16668 39801 ft 512 kts 339°
2026-05-07 12:59 34.14276 7.14928 39801 ft 512 kts 339°
2026-05-07 12:59 34.21243 7.13188 39802 ft 512 kts 339°
2026-05-07 13:00 34.28214 7.11443 39802 ft 512 kts 339°
2026-05-07 13:00 34.35189 7.09696 39802 ft 512 kts 339°
2026-05-07 13:01 34.42165 7.07944 39802 ft 512 kts 339°
2026-05-07 13:01 34.49141 7.06190 39802 ft 512 kts 339°
2026-05-07 13:02 34.56113 7.04433 39802 ft 512 kts 339°
2026-05-07 13:02 34.63083 7.02676 39802 ft 512 kts 338°
2026-05-07 13:03 34.70053 7.00914 39802 ft 512 kts 338°
2026-05-07 13:03 34.77040 6.99144 39802 ft 512 kts 338°
2026-05-07 13:04 34.83969 6.97395 39801 ft 513 kts 339°
2026-05-07 13:04 34.90981 6.95663 39800 ft 514 kts 339°
2026-05-07 13:05 34.98016 6.93928 39800 ft 517 kts 339°
2026-05-07 13:05 35.05082 6.92180 39801 ft 519 kts 339°
2026-05-07 13:06 35.12152 6.90425 39801 ft 518 kts 339°
2026-05-07 13:06 35.19219 6.88669 39801 ft 517 kts 339°
2026-05-07 13:07 35.26275 6.86908 39803 ft 518 kts 339°
2026-05-07 13:07 35.29803 6.86029 39926 ft 517 kts 337°
2026-05-07 13:07 35.33337 6.85145 39943 ft 520 kts 338°
2026-05-07 13:08 35.40447 6.83357 39938 ft 523 kts 338°
2026-05-07 13:08 35.47597 6.81563 39939 ft 525 kts 338°
2026-05-07 13:09 35.54745 6.79772 39938 ft 524 kts 338°
2026-05-07 13:09 35.61880 6.77979 39940 ft 523 kts 338°
2026-05-07 13:10 35.69007 6.76182 39939 ft 523 kts 338°
2026-05-07 13:10 35.76093 6.74392 39939 ft 523 kts 338°
2026-05-07 13:11 35.83213 6.72589 39940 ft 522 kts 338°
2026-05-07 13:11 35.90337 6.70781 39938 ft 523 kts 338°
2026-05-07 13:12 35.97466 6.68970 39940 ft 523 kts 338°
2026-05-07 13:12 36.04601 6.67153 39936 ft 523 kts 338°
2026-05-07 13:13 36.11731 6.65338 39940 ft 523 kts 338°
2026-05-07 13:13 36.18805 6.63532 39938 ft 522 kts 338°
2026-05-07 13:14 36.25923 6.61736 39935 ft 524 kts 339°
2026-05-07 13:14 36.29591 6.61272 39939 ft 538 kts 348°
2026-05-07 13:14 36.33381 6.61463 39941 ft 548 kts 355°
2026-05-07 13:15 36.41001 6.62471 39938 ft 553 kts 357°
2026-05-07 13:15 36.48638 6.63696 39938 ft 552 kts 358°
2026-05-07 13:16 36.56207 6.64900 39938 ft 552 kts 357°
2026-05-07 13:16 36.63829 6.66081 39939 ft 552 kts 357°
2026-05-07 13:17 36.71488 6.67254 39940 ft 550 kts 357°
2026-05-07 13:17 36.79058 6.68402 39939 ft 554 kts 356°
2026-05-07 13:18 36.86771 6.69588 39940 ft 555 kts 356°
2026-05-07 13:18 36.94394 6.70765 39938 ft 555 kts 356°
2026-05-07 13:19 37.02047 6.71948 39939 ft 554 kts 356°
2026-05-07 13:19 37.09706 6.73130 39940 ft 554 kts 356°
2026-05-07 13:20 37.17360 6.74313 39939 ft 554 kts 356°
2026-05-07 13:20 37.25006 6.75499 39939 ft 554 kts 356°
2026-05-07 13:21 37.31362 6.76486 39939 ft 554 kts 356°
2026-05-07 13:21 37.39010 6.77677 39938 ft 554 kts 356°
2026-05-07 13:22 37.46660 6.78871 39939 ft 554 kts 356°
2026-05-07 13:22 37.54324 6.80071 39883 ft 555 kts 355°
2026-05-07 13:23 37.61981 6.81270 39884 ft 555 kts 355°
2026-05-07 13:23 37.69647 6.82472 39884 ft 555 kts 355°
2026-05-07 13:24 37.77315 6.83678 39884 ft 555 kts 355°
2026-05-07 13:24 37.84990 6.84888 39884 ft 555 kts 355°
2026-05-07 13:25 37.92648 6.86097 39884 ft 555 kts 356°
2026-05-07 13:25 38.00262 6.87303 39884 ft 555 kts 356°
2026-05-07 13:26 38.07931 6.88519 39884 ft 555 kts 356°
2026-05-07 13:26 38.15598 6.89738 39884 ft 555 kts 356°
2026-05-07 13:27 38.23272 6.90961 39884 ft 555 kts 356°
2026-05-07 13:27 38.30859 6.92189 39908 ft 538 kts 355°
2026-05-07 13:28 38.34529 6.92798 39923 ft 525 kts 355°
2026-05-07 13:28 38.38111 6.93387 39921 ft 514 kts 354°
2026-05-07 13:28 38.45077 6.94512 39915 ft 495 kts 354°
2026-05-07 13:29 38.51793 6.95586 39915 ft 478 kts 353°
2026-05-07 13:29 38.58226 6.96616 39915 ft 461 kts 353°
2026-05-07 13:30 38.64490 6.97624 39914 ft 446 kts 352°
2026-05-07 13:30 38.70537 6.98601 39913 ft 430 kts 352°
2026-05-07 13:31 38.76370 6.99546 39913 ft 415 kts 351°
2026-05-07 13:31 38.81975 7.00455 39926 ft 402 kts 350°
2026-05-07 13:32 38.87564 7.01324 39911 ft 407 kts 350°
2026-05-07 13:32 38.92666 7.02121 39933 ft 411 kts 352°
2026-05-07 13:33 38.98369 7.03032 39935 ft 414 kts 352°
2026-05-07 13:33 39.04069 7.03317 39937 ft 410 kts 346°
2026-05-07 13:34 39.12703 7.03327 39937 ft 418 kts 345°
2026-05-07 13:35 39.18534 7.03304 39937 ft 426 kts 346°
2026-05-07 13:35 39.24523 7.03291 39936 ft 434 kts 346°
2026-05-07 13:36 39.30606 7.03285 39936 ft 442 kts 346°
2026-05-07 13:36 39.36835 7.03281 39936 ft 452 kts 347°
2026-05-07 13:37 39.43173 7.03276 39934 ft 461 kts 347°
2026-05-07 13:37 39.49669 7.03269 39936 ft 471 kts 348°
2026-05-07 13:38 39.56264 7.03264 39936 ft 481 kts 349°
2026-05-07 13:38 39.63031 7.03265 39935 ft 491 kts 349°
2026-05-07 13:39 39.69928 7.03264 39937 ft 500 kts 349°
2026-05-07 13:39 39.76953 7.03261 39935 ft 509 kts 349°
2026-05-07 13:40 39.84099 7.03258 39936 ft 517 kts 350°
2026-05-07 13:40 39.91309 7.03261 39937 ft 519 kts 350°
2026-05-07 13:41 39.98504 7.03267 39938 ft 518 kts 350°
2026-05-07 13:41 40.05708 7.03265 39939 ft 517 kts 350°
2026-05-07 13:42 40.12924 7.03260 39939 ft 517 kts 350°
2026-05-07 13:42 40.20138 7.03251 39960 ft 517 kts 351°
2026-05-07 13:43 40.27317 7.03244 39965 ft 515 kts 352°
2026-05-07 13:43 40.34482 7.03244 39966 ft 515 kts 352°
2026-05-07 13:44 40.41647 7.03240 39967 ft 515 kts 352°
2026-05-07 13:44 40.48808 7.03235 39964 ft 515 kts 352°
2026-05-07 13:45 40.55927 7.03230 39963 ft 515 kts 352°
2026-05-07 13:45 40.63136 7.03225 39969 ft 515 kts 352°
2026-05-07 13:46 40.70302 7.03220 39969 ft 515 kts 352°
2026-05-07 13:46 40.77455 7.03215 39965 ft 515 kts 352°
2026-05-07 13:47 40.84570 7.03210 39969 ft 515 kts 352°
2026-05-07 13:47 40.91730 7.03205 39964 ft 515 kts 352°
2026-05-07 13:48 40.98870 7.03200 39964 ft 515 kts 352°
2026-05-07 13:48 41.06049 7.03195 39968 ft 515 kts 352°
2026-05-07 13:49 41.13210 7.03082 39963 ft 512 kts 349°
2026-05-07 13:49 41.20318 7.02713 39967 ft 512 kts 349°
2026-05-07 13:50 41.27436 7.02334 39965 ft 512 kts 349°
2026-05-07 13:50 41.34565 7.01997 39965 ft 512 kts 349°
2026-05-07 13:51 41.41688 7.01681 39966 ft 512 kts 349°
2026-05-07 13:51 41.48813 7.01368 39970 ft 512 kts 349°
2026-05-07 13:52 41.55938 7.01052 39968 ft 512 kts 349°
2026-05-07 13:52 41.63062 7.00732 39967 ft 511 kts 351°
2026-05-07 13:53 41.70141 7.00417 39968 ft 508 kts 351°
2026-05-07 13:53 41.77202 7.00102 39969 ft 507 kts 351°
2026-05-07 13:54 41.84261 6.99784 39967 ft 507 kts 351°
2026-05-07 13:54 41.91320 6.99465 39963 ft 508 kts 351°
2026-05-07 13:55 41.98372 6.99146 39967 ft 508 kts 351°
2026-05-07 13:55 42.05433 6.98827 39964 ft 508 kts 351°
2026-05-07 13:56 42.12492 6.98507 39966 ft 508 kts 351°
2026-05-07 13:56 42.19506 6.98188 39965 ft 508 kts 351°
2026-05-07 13:57 42.26559 6.97867 39965 ft 507 kts 351°
2026-05-07 13:57 42.33658 6.97541 39989 ft 506 kts 352°
2026-05-07 13:58 42.40622 6.97226 39997 ft 501 kts 352°
2026-05-07 13:58 42.47577 6.96909 39994 ft 500 kts 351°
2026-05-07 13:59 42.54525 6.96587 39993 ft 500 kts 351°
2026-05-07 13:59 42.61487 6.96265 39991 ft 500 kts 351°
2026-05-07 14:00 42.68435 6.95944 39993 ft 500 kts 351°
2026-05-07 14:00 42.75417 6.95622 39994 ft 500 kts 351°
2026-05-07 14:01 42.82378 6.95299 39994 ft 500 kts 351°
2026-05-07 14:01 42.89278 6.94978 39991 ft 500 kts 351°
2026-05-07 14:02 42.96294 6.94651 39994 ft 500 kts 351°
2026-05-07 14:02 43.03263 6.94326 39993 ft 500 kts 351°
2026-05-07 14:03 43.10219 6.94000 39991 ft 500 kts 351°
2026-05-07 14:03 43.17069 6.93679 39993 ft 500 kts 351°
2026-05-07 14:04 43.24023 6.93352 39991 ft 500 kts 351°
2026-05-07 14:04 43.30883 6.93029 39992 ft 500 kts 351°
2026-05-07 14:05 43.36954 6.92743 39996 ft 500 kts 351°
2026-05-07 14:05 43.43913 6.92413 39991 ft 500 kts 351°
2026-05-07 14:06 43.50704 6.92091 39993 ft 500 kts 351°
2026-05-07 14:06 43.57604 6.91762 39992 ft 501 kts 351°
2026-05-07 14:07 43.64591 6.91429 39993 ft 501 kts 351°
2026-05-07 14:07 43.71584 6.91092 39991 ft 505 kts 352°
2026-05-07 14:08 43.78660 6.90747 39989 ft 513 kts 352°
2026-05-07 14:08 43.85816 6.90405 39997 ft 515 kts 352°
2026-05-07 14:09 43.92722 6.90082 39997 ft 511 kts 352°
2026-05-07 14:09 43.98146 6.89823 39992 ft 511 kts 352°
2026-05-07 14:10 44.05264 6.89476 39996 ft 514 kts 352°
2026-05-07 14:10 44.12436 6.89127 39986 ft 516 kts 352°
2026-05-07 14:11 44.18395 6.88723 39985 ft 515 kts 349°
2026-05-07 14:11 44.25505 6.87591 39995 ft 515 kts 347°
2026-05-07 14:12 44.33756 6.86157 39988 ft 514 kts 347°
2026-05-07 14:12 44.39732 6.85194 39983 ft 519 kts 349°
2026-05-07 14:13 44.46915 6.84099 40001 ft 519 kts 349°
2026-05-07 14:13 44.54089 6.83015 39991 ft 518 kts 349°
2026-05-07 14:14 44.61258 6.81924 39983 ft 518 kts 349°
2026-05-07 14:14 44.68372 6.80833 39995 ft 517 kts 349°
2026-05-07 14:15 44.75517 6.79737 39999 ft 516 kts 349°
2026-05-07 14:15 44.82645 6.78681 39991 ft 517 kts 351°
2026-05-07 14:16 44.89883 6.78171 39992 ft 522 kts 353°
2026-05-07 14:16 44.97126 6.77842 39995 ft 519 kts 353°
2026-05-07 14:17 45.04315 6.77441 39993 ft 517 kts 353°
2026-05-07 14:17 45.11486 6.76977 39999 ft 517 kts 353°
2026-05-07 14:18 45.18718 6.76487 40000 ft 521 kts 353°
2026-05-07 14:18 45.25959 6.76004 39994 ft 519 kts 353°
2026-05-07 14:19 45.33160 6.75527 39991 ft 523 kts 353°
2026-05-07 14:19 45.40006 6.75073 39994 ft 526 kts 353°
2026-05-07 14:20 45.47261 6.74586 39992 ft 523 kts 354°
2026-05-07 14:20 45.54498 6.74100 39999 ft 520 kts 353°
2026-05-07 14:21 45.61676 6.73603 39993 ft 513 kts 353°
2026-05-07 14:21 45.68816 6.73108 39988 ft 515 kts 353°
2026-05-07 14:22 45.76003 6.72608 39998 ft 519 kts 353°
2026-05-07 14:22 45.82753 6.72143 39934 ft 519 kts 354°
2026-05-07 14:23 45.89892 6.71666 39916 ft 516 kts 353°
2026-05-07 14:23 45.97046 6.71180 39908 ft 514 kts 353°
2026-05-07 14:24 46.03426 6.70740 39905 ft 520 kts 354°
2026-05-07 14:24 46.10375 6.69081 39912 ft 509 kts 337°
2026-05-07 14:25 46.16519 6.64441 39913 ft 494 kts 318°
2026-05-07 14:25 46.21615 6.57832 39912 ft 494 kts 312°
2026-05-07 14:26 46.26542 6.50887 39912 ft 493 kts 311°
2026-05-07 14:26 46.31422 6.43968 39913 ft 491 kts 312°
2026-05-07 14:27 46.36265 6.37143 39912 ft 487 kts 312°
2026-05-07 14:27 46.41110 6.30321 39986 ft 484 kts 313°
2026-05-07 14:28 46.45926 6.23528 39994 ft 484 kts 313°
2026-05-07 14:28 46.50760 6.16694 39993 ft 487 kts 313°
2026-05-07 14:29 46.55626 6.09794 39992 ft 490 kts 313°
2026-05-07 14:29 46.60498 6.02869 39992 ft 489 kts 313°
2026-05-07 14:30 46.65355 5.95948 39993 ft 488 kts 313°
2026-05-07 14:30 46.70189 5.89039 39991 ft 486 kts 313°
2026-05-07 14:31 46.74975 5.82180 39995 ft 485 kts 313°
2026-05-07 14:31 46.79751 5.75375 39988 ft 486 kts 315°
2026-05-07 14:32 46.85311 5.69702 39881 ft 490 kts 327°
2026-05-07 14:32 46.88270 5.67237 39641 ft 489 kts 328°
2026-05-07 14:32 46.91249 5.64838 39392 ft 489 kts 328°
2026-05-07 14:32 46.94239 5.62462 39148 ft 488 kts 328°
2026-05-07 14:33 46.97219 5.60098 38895 ft 488 kts 328°
2026-05-07 14:33 47.00204 5.57720 38640 ft 487 kts 328°
2026-05-07 14:33 47.03169 5.55345 38411 ft 487 kts 328°
2026-05-07 14:33 47.06139 5.52956 38158 ft 486 kts 328°
2026-05-07 14:34 47.09097 5.50567 37904 ft 486 kts 328°
2026-05-07 14:34 47.12062 5.48168 37655 ft 486 kts 328°
2026-05-07 14:34 47.15014 5.45775 37411 ft 485 kts 328°
2026-05-07 14:34 47.17968 5.43377 37157 ft 485 kts 328°
2026-05-07 14:35 47.20922 5.40976 36897 ft 484 kts 328°
2026-05-07 14:35 47.23796 5.38637 36681 ft 484 kts 328°
2026-05-07 14:35 47.26741 5.36238 36427 ft 483 kts 328°
2026-05-07 14:35 47.29683 5.33838 36168 ft 483 kts 328°
2026-05-07 14:36 47.32662 5.31412 35924 ft 483 kts 328°
2026-05-07 14:36 47.35550 5.29052 35678 ft 483 kts 328°
2026-05-07 14:36 47.38531 5.26612 35427 ft 484 kts 328°
2026-05-07 14:36 47.41473 5.24201 35177 ft 484 kts 328°
2026-05-07 14:37 47.44414 5.21789 34928 ft 484 kts 328°
2026-05-07 14:37 47.50280 5.16965 33804 ft 486 kts 329°
2026-05-07 14:37 47.53236 5.14530 32955 ft 487 kts 329°
2026-05-07 14:38 47.56199 5.12087 32096 ft 489 kts 330°
2026-05-07 14:38 47.59087 5.09439 31430 ft 487 kts 323°
2026-05-07 14:38 47.61744 5.06317 30822 ft 488 kts 320°
2026-05-07 14:38 47.64344 5.03062 30213 ft 491 kts 320°
2026-05-07 14:39 47.66960 4.99772 29591 ft 495 kts 320°
2026-05-07 14:39 47.69589 4.96465 28978 ft 497 kts 320°
2026-05-07 14:39 47.72223 4.93151 28345 ft 496 kts 320°
2026-05-07 14:39 47.74850 4.89840 27800 ft 491 kts 319°
2026-05-07 14:40 47.77432 4.86570 27457 ft 486 kts 319°
2026-05-07 14:40 47.79991 4.83321 27121 ft 484 kts 319°
2026-05-07 14:40 47.82546 4.80072 26760 ft 482 kts 319°
2026-05-07 14:40 47.85091 4.76838 26394 ft 480 kts 319°
2026-05-07 14:41 47.87622 4.73616 26039 ft 478 kts 319°
2026-05-07 14:41 47.90105 4.70450 25705 ft 475 kts 319°
2026-05-07 14:41 47.92609 4.67253 25339 ft 472 kts 319°
2026-05-07 14:41 47.95094 4.64078 24994 ft 469 kts 319°
2026-05-07 14:42 47.97565 4.60914 24657 ft 467 kts 319°
2026-05-07 14:42 48.00025 4.57760 24296 ft 465 kts 319°
2026-05-07 14:42 48.02461 4.54634 24007 ft 457 kts 319°
2026-05-07 14:42 48.04853 4.51563 23695 ft 453 kts 318°
2026-05-07 14:43 48.07246 4.48484 23356 ft 454 kts 318°
2026-05-07 14:43 48.09638 4.45402 23015 ft 454 kts 318°
2026-05-07 14:43 48.12022 4.42326 22691 ft 453 kts 318°
2026-05-07 14:43 48.14409 4.39240 22349 ft 451 kts 318°
2026-05-07 14:44 48.16775 4.36181 22015 ft 449 kts 318°
2026-05-07 14:44 48.19131 4.33131 21681 ft 446 kts 318°
2026-05-07 14:44 48.21469 4.30099 21366 ft 443 kts 318°
2026-05-07 14:44 48.23764 4.27120 21033 ft 441 kts 318°
2026-05-07 14:45 48.26064 4.24014 20693 ft 438 kts 314°
2026-05-07 14:45 48.28078 4.20606 20371 ft 436 kts 309°
2026-05-07 14:45 48.29972 4.17152 20066 ft 434 kts 308°
2026-05-07 14:45 48.31880 4.13650 19741 ft 431 kts 308°
2026-05-07 14:46 48.33779 4.10172 19503 ft 429 kts 308°
2026-05-07 14:46 48.35669 4.06717 19215 ft 428 kts 309°
2026-05-07 14:46 48.37582 4.03219 18809 ft 426 kts 309°
2026-05-07 14:46 48.39429 3.99834 18496 ft 423 kts 309°
2026-05-07 14:47 48.41294 3.96413 18170 ft 422 kts 309°
2026-05-07 14:47 48.43125 3.93052 17865 ft 420 kts 309°
2026-05-07 14:47 48.44971 3.89658 17550 ft 418 kts 309°
2026-05-07 14:47 48.46806 3.86281 17232 ft 416 kts 309°
2026-05-07 14:48 48.48630 3.82923 16935 ft 414 kts 309°
2026-05-07 14:48 48.50450 3.79566 16632 ft 412 kts 309°
2026-05-07 14:48 48.52256 3.76230 16327 ft 410 kts 309°
2026-05-07 14:48 48.54012 3.72858 16005 ft 408 kts 305°
2026-05-07 14:49 48.55588 3.69320 15816 ft 406 kts 302°
2026-05-07 14:49 48.57123 3.65742 15618 ft 405 kts 302°
2026-05-07 14:49 48.58649 3.62178 15414 ft 403 kts 302°
2026-05-07 14:49 48.60170 3.58626 15187 ft 402 kts 302°
2026-05-07 14:50 48.61633 3.55210 14989 ft 401 kts 302°
2026-05-07 14:50 48.63098 3.51793 14757 ft 400 kts 302°
2026-05-07 14:50 48.64607 3.48263 14530 ft 399 kts 302°
2026-05-07 14:50 48.66088 3.44794 14309 ft 397 kts 302°
2026-05-07 14:51 48.67583 3.41289 14062 ft 396 kts 302°
2026-05-07 14:51 48.69070 3.37797 13838 ft 394 kts 302°
2026-05-07 14:51 48.70555 3.34306 13613 ft 394 kts 302°
2026-05-07 14:51 48.72033 3.30829 13384 ft 393 kts 302°
2026-05-07 14:52 48.73511 3.27346 13153 ft 392 kts 302°
2026-05-07 14:52 48.74980 3.23882 12927 ft 390 kts 302°
2026-05-07 14:52 48.76432 3.20458 12706 ft 382 kts 302°
2026-05-07 14:52 48.77793 3.17239 12486 ft 344 kts 302°
2026-05-07 14:53 48.79081 3.14186 12315 ft 350 kts 302°
2026-05-07 14:53 48.80400 3.11061 12072 ft 353 kts 302°
2026-05-07 14:53 48.81715 3.07940 11863 ft 351 kts 302°
2026-05-07 14:53 48.83027 3.04823 11659 ft 349 kts 302°
2026-05-07 14:54 48.84360 3.01756 11447 ft 349 kts 306°
2026-05-07 14:54 48.85914 2.98945 11255 ft 348 kts 312°
2026-05-07 14:54 48.86446 2.98059 11184 ft 347 kts 312°
2026-05-07 14:54 48.88502 2.94677 10925 ft 346 kts 312°
2026-05-07 14:55 48.90111 2.92020 10789 ft 335 kts 312°
2026-05-07 14:55 48.91608 2.89540 10616 ft 302 kts 312°
2026-05-07 14:55 48.92823 2.87232 10456 ft 277 kts 301°
2026-05-07 14:55 48.93536 2.84502 10275 ft 282 kts 281°
2026-05-07 14:56 48.93603 2.81523 10107 ft 284 kts 266°
2026-05-07 14:56 48.93434 2.78562 9916 ft 284 kts 265°
2026-05-07 14:56 48.93265 2.75705 9753 ft 283 kts 265°
2026-05-07 14:56 48.93099 2.72776 9587 ft 283 kts 266°
2026-05-07 14:57 48.92936 2.69789 9426 ft 282 kts 266°
2026-05-07 14:57 48.92773 2.66825 9252 ft 282 kts 266°
2026-05-07 14:57 48.92611 2.63855 9092 ft 280 kts 265°
2026-05-07 14:57 48.92458 2.60980 8940 ft 279 kts 265°
2026-05-07 14:58 48.92299 2.58056 8780 ft 278 kts 265°
2026-05-07 14:58 48.92140 2.55118 8615 ft 278 kts 264°
2026-05-07 14:58 48.91980 2.52227 8463 ft 278 kts 264°
2026-05-07 14:58 48.91819 2.49297 8296 ft 279 kts 264°
2026-05-07 14:59 48.91674 2.46664 8150 ft 279 kts 264°
2026-05-07 14:59 48.91517 2.43753 7994 ft 280 kts 264°
2026-05-07 14:59 48.91354 2.40802 7824 ft 280 kts 264°
2026-05-07 14:59 48.91186 2.37847 7669 ft 280 kts 264°
2026-05-07 15:00 48.91045 2.35377 7520 ft 281 kts 264°
2026-05-07 15:00 48.90904 2.32888 7398 ft 281 kts 264°
2026-05-07 15:00 48.90737 2.29936 7235 ft 281 kts 264°
2026-05-07 15:00 48.90568 2.26974 7071 ft 281 kts 264°
2026-05-07 15:01 48.90398 2.24005 6964 ft 284 kts 264°
2026-05-07 15:01 48.90228 2.21044 6847 ft 276 kts 264°
2026-05-07 15:01 48.90064 2.18190 6707 ft 266 kts 264°
2026-05-07 15:01 48.89919 2.15438 6548 ft 257 kts 267°
2026-05-07 15:02 48.90177 2.12834 6427 ft 246 kts 292°
2026-05-07 15:02 48.90920 2.10543 6317 ft 237 kts 300°
2026-05-07 15:02 48.91955 2.08696 6187 ft 225 kts 327°
2026-05-07 15:02 48.93375 2.07936 6116 ft 215 kts 355°
2026-05-07 15:03 48.94865 2.07858 6020 ft 216 kts
2026-05-07 15:03 48.96228 2.08353 5897 ft 217 kts 28°
2026-05-07 15:03 48.96960 2.09364 5818 ft 216 kts 56°
2026-05-07 15:03 48.97325 2.11753 5681 ft 215 kts 93°
2026-05-07 15:04 48.97236 2.14024 5562 ft 216 kts 92°
2026-05-07 15:04 48.97206 2.15541 5476 ft 216 kts 90°
2026-05-07 15:04 48.97209 2.16780 5399 ft 216 kts 88°
2026-05-07 15:04 48.97313 2.19807 5108 ft 216 kts 85°
2026-05-07 15:05 48.97437 2.21936 4832 ft 217 kts 84°
2026-05-07 15:05 48.97522 2.23457 4612 ft 216 kts 85°
2026-05-07 15:05 48.97634 2.25642 4322 ft 216 kts 85°
2026-05-07 15:05 48.97795 2.28640 3922 ft 213 kts 84°
2026-05-07 15:06 48.97877 2.30150 3727 ft 212 kts 84°
2026-05-07 15:06 48.97995 2.32380 3448 ft 210 kts 84°
2026-05-07 15:06 48.98114 2.34589 3166 ft 210 kts 84°
2026-05-07 15:06 48.98230 2.36761 2894 ft 199 kts 84°
2026-05-07 15:07 48.98340 2.38794 2638 ft 186 kts 84°
2026-05-07 15:07 48.98442 2.40710 2397 ft 179 kts 84°
2026-05-07 15:07 48.98541 2.42549 2168 ft 172 kts 84°
2026-05-07 15:07 48.98635 2.44330 1937 ft 165 kts 84°
2026-05-07 15:08 48.98722 2.45921 1730 ft 159 kts 84°
2026-05-07 15:08 48.98809 2.47564 1521 ft 153 kts 83°
2026-05-07 15:08 48.98893 2.49128 1324 ft 143 kts 84°
2026-05-07 15:08 48.98971 2.50599 1146 ft 134 kts 84°
2026-05-07 15:09 48.99046 2.51989 979 ft 134 kts 84°
2026-05-07 15:09 48.99122 2.53414 790 ft 135 kts 84°
2026-05-07 15:09 48.99199 2.54857 618 ft 136 kts 84°
2026-05-07 15:09 48.99279 2.56265 417 ft 135 kts 84°
2026-05-07 15:10 48.99365 2.57604 360 ft 121 kts 85°
2026-05-07 15:10 48.99420 2.58674 364 ft 98 kts 84°
2026-05-07 15:10 48.99472 2.59598 364 ft 74 kts 84°
2026-05-07 15:10 48.99579 2.59957 365 ft 26 kts 16°
2026-05-07 15:11 48.99732 2.59949 360 ft 21 kts 356°
2026-05-07 15:11 48.99876 2.59991 367 ft 22 kts 25°
2026-05-07 15:11 48.99964 2.60051 362 ft 12 kts
2026-05-07 15:11 49.00038 2.60011 367 ft 13 kts 323°
2026-05-07 15:12 49.00077 2.59912 364 ft 14 kts 279°
2026-05-07 15:12 49.00083 2.59759 364 ft 15 kts 275°
2026-05-07 15:12 49.00080 2.59588 362 ft 17 kts 264°
2026-05-07 15:12 49.00067 2.59395 367 ft 19 kts 264°
2026-05-07 15:13 49.00054 2.59180 363 ft 21 kts 264°
2026-05-07 15:13 49.00040 2.58946 360 ft 23 kts 264°
2026-05-07 15:13 49.00035 2.58710 360 ft 22 kts 268°
2026-05-07 15:13 49.00027 2.58566 360 ft 23 kts 265°
2026-05-07 15:14 49.00023 2.58502 360 ft 23 kts 265°
2026-05-07 15:14 49.00009 2.58247 365 ft 25 kts 265°
2026-05-07 15:14 48.99994 2.57970 363 ft 27 kts 265°
2026-05-07 15:14 48.99978 2.57678 364 ft 29 kts 265°
2026-05-07 15:15 48.99961 2.57363 366 ft 31 kts 265°
2026-05-07 15:15 48.99950 2.57162 365 ft 7 kts 265°
2026-05-07 15:15 48.99950 2.57074 365 ft 10 kts 284°
2026-05-07 15:15 49.00002 2.57000 366 ft 12 kts 340°
2026-05-07 15:16 49.00076 2.56961 364 ft 9 kts 328°
2026-05-07 15:16 49.00102 2.56911 368 ft 10 kts 294°
2026-05-07 15:16 49.00107 2.56883 365 ft 0 kts 285°
2026-05-07 15:16 49.00112 2.56867 364 ft 11 kts 294°
2026-05-07 15:17 49.00171 2.56840 361 ft 0 kts 20°
2026-05-07 15:17 49.00194 2.56834 363 ft 2 kts 340°
2026-05-07 15:17 49.00200 2.56832 365 ft 0 kts 346°
2026-05-07 15:17 49.00202 2.56831 365 ft 0 kts 346°